Terminal Aerodrome Forecast
Issued by NWS

Home | Current Version | Previous Version | Text Only | Print | Product List | Glossary On
Versions: 1 2 3 4 5 6 7 8 9 10 11 12
000
FTUS42 TJSJ 160500
TAFKPK
TAF
TKPK 160521Z 1606/1706 04007KT P6SM FEW015
     FM161430 06008KT P6SM FEW018
     FM162300 06006KT P6SM VCSH SCT018
      AMD NOT SKED TIL 161100=

USA.gov is the U.S. government's official web portal to all federal, state and local government web resources and services.